Weather History for Gwinn, MI

Change the Weather History Date:

Thursday, December 6, 2012

  Actual Average (KESC) Record (KESC)
Temperature  
Mean Temperature 32 °F -  
Max Temperature 35 °F 31 °F 55 °F (2011)
Min Temperature 28 °F 17 °F -4 °F (1972)
Degree Days  
Heating Degree Days 34    
Moisture  
Dew Point 29 °F    
Average Humidity 85    
Maximum Humidity 93    
Minimum Humidity 78    
Precipitation  
Precipitation 0.00 in - - ()
Sea Level Pressure  
Sea Level Pressure 29.90 in    
Wind  
Wind Speed 17 mph (SSW)    
Max Wind Speed 23 mph    
Max Gust Speed 38 mph    
Visibility 9 miles    
Events Rain , Snow    
Averages and records for this station are not official NWS values.
T = Trace of Precipitation, MM = Missing Value Source: NWS Daily Summary

Daily Weather History Graph

Daily Weather History Graph

Search for Another Location

Airport:

Trip Planner

Search our weather history database for the weather conditions in past years. The results will help you decide how hot, cold, wet, or windy it might be!

Date:

Astronomy

Dec. 06, 2012 Rise Set
Actual Time 8:18 AM EST 5:03 PM EST
Civil Twilight 7:43 AM EST 5:37 PM EST
Nautical Twilight 7:05 AM EST 6:15 PM EST
Astronomical Twilight 6:29 AM EST 6:52 PM EST
Moon 12:10 AM EST (12/6) 12:50 PM EST (12/6)
Length of Visible Light 9h 53m
Length of Day
8h 44m
Waning Gibbous, 49% of the Moon is Illuminated
Dec 6
Waning Gibbous
Dec 13
New
Dec 20
First Quarter
Dec 28
Full
Jan 4
Last Quarter

Hourly Weather History & Observations

Time (EST) Temp. Windchill Dew Point Humidity Pressure Visibility Wind Dir Wind Speed Gust Speed Precip Events Conditions
12:15 AM 28.8 °F 16.6 °F 22.8 °F 78% 30.11 in 10.0 mi SSW 17.3 mph - N/A   Overcast
12:36 AM 28.9 °F 16.1 °F 23.0 °F 78% 30.11 in 10.0 mi SSW 19.6 mph 24.2 mph N/A   Overcast
12:56 AM 29.1 °F 16.4 °F 23.4 °F 79% 30.11 in 10.0 mi SSW 19.6 mph 28.8 mph N/A   Overcast
1:15 AM 29.3 °F 17.0 °F 23.5 °F 79% 30.10 in 10.0 mi SSW 18.4 mph - N/A   Overcast
1:36 AM 29.7 °F 17.4 °F 23.9 °F 79% 30.09 in 10.0 mi SSW 18.4 mph 26.5 mph N/A   Overcast
1:56 AM 29.8 °F 17.3 °F 23.9 °F 79% 30.08 in 10.0 mi SSW 19.6 mph 25.3 mph N/A   Overcast
2:15 AM 30.2 °F 18.9 °F 24.4 °F 79% 30.06 in 10.0 mi SSW 16.1 mph 25.3 mph N/A   Overcast
2:36 AM 30.2 °F 17.1 °F 24.6 °F 80% 30.06 in 10.0 mi SSW 21.9 mph 28.8 mph N/A   Overcast
2:56 AM 30.4 °F 17.3 °F 24.8 °F 80% 30.05 in 10.0 mi SSW 21.9 mph 29.9 mph N/A   Overcast
3:15 AM 30.6 °F 17.6 °F 25.2 °F 80% 30.04 in 10.0 mi SSW 21.9 mph 25.3 mph N/A   Overcast
3:36 AM 30.6 °F 19.0 °F 25.7 °F 82% 30.04 in 10.0 mi SSW 17.3 mph 27.6 mph N/A   Overcast
3:56 AM 30.7 °F 19.2 °F 25.7 °F 82% 30.03 in 10.0 mi SSW 17.3 mph 25.3 mph N/A   Overcast
4:16 AM 30.9 °F 18.7 °F 25.7 °F 81% 30.02 in 10.0 mi SSW 19.6 mph 25.3 mph N/A   Overcast
4:36 AM 31.1 °F 18.3 °F 26.2 °F 82% 30.01 in 10.0 mi SSW 21.9 mph 26.5 mph N/A   Overcast
4:56 AM 31.6 °F 20.0 °F 26.6 °F 82% 30.00 in 10.0 mi South 18.4 mph 26.5 mph N/A   Overcast
5:16 AM 31.8 °F 19.9 °F 26.6 °F 81% 29.97 in 10.0 mi South 19.6 mph 32.2 mph N/A Snow Light Snow
5:35 AM 32.0 °F 20.1 °F 27.3 °F 83% 29.95 in 10.0 mi South 19.6 mph 28.8 mph N/A   Overcast
5:56 AM 32.0 °F 20.5 °F 27.7 °F 84% 29.95 in 10.0 mi South 18.4 mph 26.5 mph N/A   Overcast
6:50 AM 32.0 °F 19.8 °F 28.4 °F 87% 29.94 in 10.0 mi South 20.7 mph 24.2 mph N/A Rain Light Rain
7:25 AM 33.8 °F 22.8 °F 30.2 °F 87% 29.91 in 10.0 mi South 18.4 mph 24.2 mph N/A Rain Light Rain
7:55 AM 33.8 °F 21.6 °F 30.2 °F 87% 29.88 in 10.0 mi South 23.0 mph 31.1 mph N/A   Overcast
8:30 AM 33.8 °F 21.6 °F 30.2 °F 87% 29.86 in 10.0 mi South 23.0 mph 38.0 mph N/A   Overcast
8:55 AM 33.8 °F 22.5 °F 32.0 °F 93% 29.85 in 7.0 mi South 19.6 mph 38.0 mph N/A Rain Rain
9:22 AM 33.8 °F 23.2 °F 32.0 °F 93% 29.86 in 1.5 mi SSW 17.3 mph 21.9 mph N/A Snow Light Snow
9:50 AM 33.8 °F 22.5 °F 32.0 °F 93% 29.86 in 1.5 mi SSW 19.6 mph - N/A Snow Light Snow
10:50 AM 33.8 °F 22.2 °F 32.0 °F 93% 29.83 in 2.5 mi SSW 20.7 mph 31.1 mph N/A Snow Light Snow
11:10 AM 33.8 °F 21.9 °F 32.0 °F 93% 29.82 in 3.0 mi South 21.9 mph - N/A Snow Light Snow
11:50 AM 33.8 °F 21.6 °F 32.0 °F 93% 29.80 in 3.0 mi SSW 23.0 mph 29.9 mph N/A Snow Light Snow
1:50 PM 33.8 °F 23.5 °F 32.0 °F 93% 29.76 in 7.0 mi SSW 16.1 mph - N/A   Overcast
2:50 PM 33.8 °F 24.3 °F 30.2 °F 87% 29.74 in 7.0 mi SSW 13.8 mph - N/A   Overcast
3:50 PM 33.8 °F 25.8 °F 32.0 °F 93% 29.73 in 7.0 mi South 10.4 mph 18.4 mph N/A   Overcast
4:50 PM 35.6 °F 28.0 °F 32.0 °F 87% 29.74 in 10.0 mi SSW 10.4 mph - N/A   Overcast
5:50 PM 35.6 °F 28.0 °F 32.0 °F 87% 29.74 in 7.0 mi SSW 10.4 mph - N/A   Overcast
6:50 PM 35.6 °F 28.0 °F 32.0 °F 87% 29.74 in 10.0 mi South 10.4 mph - N/A   Overcast
7:50 PM 35.6 °F 30.7 °F 32.0 °F 87% 29.75 in 7.0 mi SW 5.8 mph - N/A   Overcast
8:50 PM 35.6 °F 30.7 °F 32.0 °F 87% 29.76 in 7.0 mi West 5.8 mph - N/A   Overcast
9:45 PM 35.6 °F 32.8 °F 32.0 °F 87% 29.77 in 10.0 mi SW 3.5 mph - N/A   Overcast
10:16 PM 35.8 °F 30.9 °F 30.4 °F 81% 29.79 in 10.0 mi WNW 5.8 mph - N/A   Overcast
10:36 PM 35.8 °F 29.4 °F 30.0 °F 80% 29.79 in 10.0 mi West 8.1 mph - N/A   Overcast
10:55 PM 35.4 °F 32.6 °F 30.2 °F 81% 29.78 in 10.0 mi WSW 3.5 mph - N/A   Overcast
11:16 PM 35.1 °F - 30.2 °F 82% 29.80 in 10.0 mi Calm Calm - N/A   Overcast
11:36 PM 34.7 °F 30.6 °F 30.2 °F 84% 29.80 in 10.0 mi West 4.6 mph - N/A   Overcast
11:56 PM 34.7 °F 29.6 °F 29.8 °F 82% 29.81 in 10.0 mi NW 5.8 mph - N/A   Overcast